Temperature
15 15 15 15 15 15 15 15 15 15 15 15 15 15 15 15 15 14 15 15 15 15 15 15 15 15 15 15 15 15 15 15 15 15 15 15 15 15 15 15 15 15 15
15 15 15 15 15 15 15 15 15 15 14 14 14 15 15 14 14 14 14 15 15 15 15 15 15 15 15 15 15 15 15 15 15 15 15 15 15 15 15 15 15 15 15
15 15 15 15 15 15 14 14 14 14 14 14 14 14 14 14 14 14 14 14 14 15 15 15 15 14 14 14 14 14 14 14 14 15 15 15 15 15 15 15 15 15 15
15 15 14 14 14 14 14 14 14 14 14 14 14 14 14 14 14 14 14 14 14 14 14 14 14 14 14 14 14 14 14 14 14 14 14 14 14 14 14 14 14 14 14
14 14 14 14 14 14 14 14 13 13 13 13 13 13 13 14 14 14 14 14 14 14 14 14 14 14 14 14 14 14 14 14 14 14 14 14 14 14 14 14 14 14 14
14 14 14 14 14 13 13 13 13 13 13 13 13 13 13 13 13 13 13 13 13 13 13 13 13 14 14 14 14 14 14 14 14 14 14 14 14 14 14 14 14 14 14
14 14 14 14 13 13 13 13 13 13 13 13 13 13 13 13 13 13 13 13 13 13 13 13 13 13 13 13 14 13 13 14 14 14 14 14 14 14 14 14 13 13 14
14 14 13 13 13 13 13 13 12 12 12 12 12 13 13 13 13 13 13 13 13 13 13 13 13 13 13 13 13 13 13 13 13 14 13 13 13 13 13 13 13 13 13
14 13 13 13 13 13 13 12 12 12 12 12 12 12 13 14 13 13 13 12 12 12 12 13 13 13 12 13 13 13 13 13 13 13 13 13 13 13 13 13 13 13 13
13 13 13 13 13 12 12 12 12 12 12 12 12 12 12 12 12 12 12 12 12 12 12 12 12 12 12 12 13 13 13 13 13 13 13 13 13 13 13 13 13 13 13
13 13 13 13 12 12 12 12 12 12 12 12 11 11 12 12 12 12 12 12 12 12 12 12 12 12 12 12 12 13 13 13 13 13 13 13 13 13 12 12 12 12 13
13 13 13 13 12 12 12 12 12 12 11 11 11 11 11 11 12 12 12 12 12 12 12 12 12 12 12 12 12 12 12 12 12 12 12 12 12 12 12 12 12 12 12
13 13 13 12 12 12 12 12 12 11 11 11 11 11 11 11 11 11 11 12 11 11 12 12 12 12 12 12 12 12 12 12 12 12 12 12 12 12 12 12 12 12 12
12 12 12 12 12 12 12 12 11 11 11 11 11 11 11 11 11 11 11 11 11 11 12 12 12 12 12 11 11 12 11 12 12 12 12 11 11 11 12 12 12 12 12
12 12 12 12 12 11 11 11 11 11 11 11 11 11 11 11 11 11 11 11 11 11 11 11 11 11 11 11 11 11 11 11 12 12 11 11 11 11 11 11 11 11 11
12 12 12 12 11 11 11 11 11 11 11 11 11 11 11 11 10 11 11 11 10 10 11 11 11 11 11 11 11 11 11 11 11 11 11 11 11 11 11 11 11 11 11
11 11 11 11 11 11 11 11 11 11 10 10 10 10 11 10 10 10 10 10 10 10 10 10 10 10 10 10 10 10 10 10 10 10 11 11 11 11 11 11 11 11 11
11 11 11 11 11 11 11 10 10 10 10 10 10 10 10 10 10 10 10 10 10 10 10 10 10 10 10 10 10 10 10 10 10 10 10 10 10 10 10 10 10 10 10
11 11 11 10 10 10 10 10 10 10 10 10 9 9 9 9 10 10 9 9 9 9 9 9 9 9 9 9 9 9 9 9 9 10 10 10 10 10 10 10 10 10 10
10 10 10 10 10 10 10 10 9 9 9 9 9 9 9 9 9 9 9 9 9 8 8 9 9 9 9 9 9 9 9 9 9 9 9 9 9 9 9 9 10 10 9
10 10 10 10 10 9 9 9 9 9 9 9 9 9 9 9 9 8 8 8 8 8 8 8 8 8 8 8 8 8 8 8 8 8 8 8 8 8 9 9 9 9 9
9 9 9 9 9 9 9 9 9 8 8 8 8 8 8 8 8 8 8 8 8 8 8 7 8 8 8 8 8 8 8 8 8 8 8 8 8 8 8 8 8 9 9
9 9 9 9 9 9 9 9 9 8 8 8 8 8 8 8 7 7 8 8 8 8 7 7 7 7 7 7 7 7 8 8 8 8 8 8 8 7 8 8 8 8 9
9 8 8 8 8 8 8 8 8 8 7 7 7 7 7 7 7 7 7 7 7 7 7 7 7 7 7 7 7 7 7 7 7 7 7 7 7 7 7 7 8 8 8
8 8 8 7 7 7 7 7 7 7 7 7 7 7 6 6 7 7 7 7 6 7 7 7 7 7 7 7 7 7 6 6 7 7 7 7 7 7 7 7 7 7 8
7 7 7 7 7 7 7 7 7 6 6 6 6 6 6 6 6 6 6 6 6 6 6 6 6 6 6 6 6 6 6 6 6 6 6 6 6 6 6 7 7 7 7
Wind_Speed
4 4 4 5 5 5 4 4 5 6 5 5 5 5 5 5 5 5 6 8 8 7 7 8 8 8 8 7 6 6 6 6 6 6 6 6 6 5 5 6 6 7 6
4 4 4 4 5 4 4 4 5 4 4 4 4 5 4 4 4 4 4 6 7 7 7 7 8 8 8 8 6 5 5 4 4 4 5 5 5 5 5 6 6 7 6
4 4 3 4 4 4 4 4 4 3 3 3 4 4 4 4 4 4 4 3 4 6 6 6 6 7 7 7 6 5 5 4 4 5 5 5 5 5 5 6 6 6 6
4 4 3 3 4 3 3 3 3 3 3 3 3 3 3 3 3 3 3 3 3 3 5 6 6 6 6 7 6 6 5 4 4 5 5 5 6 5 5 6 5 5 5
3 3 3 3 3 2 2 3 3 3 3 3 3 2 3 2 2 2 3 3 3 3 3 4 4 6 6 6 7 6 6 4 5 5 4 5 5 5 5 5 4 4 5
3 2 2 2 2 2 2 2 3 3 2 3 3 3 2 2 2 2 2 3 3 3 3 2 2 4 5 6 6 6 6 5 4 4 4 4 4 4 4 4 4 4 5
2 2 1 2 2 1 2 2 2 2 2 2 2 2 1 1 1 1 1 2 3 3 3 2 2 2 2 4 6 6 5 5 4 4 4 4 4 3 3 4 4 4 5
2 1 1 1 1 1 1 2 1 1 2 2 3 3 1 0 1 1 1 1 2 2 2 2 2 2 2 2 4 5 5 3 3 3 3 3 3 3 3 3 3 4 4
2 2 1 1 1 1 1 1 1 1 2 2 2 2 2 2 2 0 1 1 2 2 2 2 2 2 1 1 1 3 3 3 2 2 3 2 2 2 2 2 3 3 4
1 2 2 2 1 1 1 1 1 2 2 2 2 2 3 3 3 2 1 1 2 2 2 2 2 2 1 1 1 3 2 2 2 2 2 2 1 1 2 2 3 3 3
1 1 1 2 2 1 2 2 2 2 2 3 3 2 3 3 4 4 3 3 2 2 2 3 2 2 1 1 1 2 1 1 1 2 2 2 2 1 1 2 2 3 2
1 1 2 2 2 2 2 2 2 3 3 3 3 3 3 3 4 3 4 4 3 3 2 2 2 2 2 1 1 3 1 1 1 1 1 2 2 1 0 1 2 2 2
2 2 2 3 3 2 2 2 3 3 3 3 4 3 4 4 4 4 5 4 4 3 3 2 2 2 2 1 1 2 1 0 1 1 1 1 1 2 1 1 1 2 1
3 3 3 3 3 3 3 2 3 3 3 4 4 4 4 4 4 4 4 4 4 3 3 3 2 2 2 2 0 2 1 2 1 1 1 1 1 2 2 1 1 2 1
3 4 4 4 3 3 3 3 3 3 4 4 4 5 4 4 4 4 4 4 4 4 4 3 3 2 2 1 1 2 1 2 2 2 2 2 2 2 2 2 2 2 2
3 3 4 3 3 3 3 3 4 4 4 4 3 5 4 4 3 4 4 4 4 5 4 4 3 3 2 2 1 2 1 1 2 2 2 2 2 3 3 3 3 2 2
3 3 4 4 4 4 4 4 4 4 5 5 4 5 5 4 4 3 3 4 4 4 5 5 4 3 3 3 2 2 2 2 1 3 2 3 3 3 3 3 3 3 3
3 3 4 4 4 4 4 4 5 5 5 5 5 5 5 3 4 3 3 4 4 4 5 5 4 3 3 3 2 2 2 2 2 1 3 3 3 3 3 3 3 4 4
3 3 3 4 4 4 4 4 4 5 5 5 5 5 5 5 4 4 4 4 3 4 4 4 4 3 3 3 2 2 3 2 2 1 2 3 3 4 4 4 4 4 4
3 3 3 4 4 4 4 4 4 5 6 5 5 5 5 5 5 5 4 4 4 4 4 4 4 4 3 3 3 3 3 3 3 2 2 2 3 4 5 5 5 4 4
3 3 4 4 4 4 4 5 5 5 6 5 5 5 5 4 4 4 4 4 4 4 4 4 4 4 3 3 3 3 3 4 3 3 3 2 2 2 3 4 5 4 5
3 3 4 4 5 3 3 5 6 5 6 6 5 5 4 5 4 4 4 4 5 5 5 5 5 5 5 5 4 5 5 4 4 3 3 4 3 3 2 3 2 3 4
3 3 4 4 5 3 3 4 5 6 6 6 6 5 4 4 5 4 4 4 5 5 6 6 6 6 6 6 5 5 5 6 6 4 3 5 4 4 3 3 3 3 4
3 3 4 4 4 3 3 4 5 6 6 6 6 5 5 5 4 4 5 5 5 5 6 6 6 7 7 6 6 6 6 6 6 4 4 5 4 4 3 3 3 4 5
3 3 4 4 4 4 3 4 6 5 5 6 5 5 5 5 2 4 5 5 5 5 4 5 6 6 6 6 7 5 6 5 5 5 4 5 5 4 4 3 3 6 6
3 3 4 4 4 4 2 4 6 4 5 5 4 4 4 4 4 4 5 5 6 6 5 5 6 5 5 5 6 7 6 6 6 5 4 4 5 4 4 3 3 3 5
Wind_Direction
52 51 53 51 46 41 39 40 41 41 38 41 42 39 41 46 48 51 66 60 48 42 43 44 44 43 42 44 55 62 65 69 68 74 73 70 72 74 78 77 73 74 72
56 49 49 47 44 39 37 39 40 37 36 39 35 36 38 44 48 48 56 68 64 48 41 43 45 42 41 42 49 54 56 68 76 79 75 73 74 75 82 81 77 75 74
53 50 44 46 43 41 41 42 40 39 41 39 33 31 36 35 35 39 43 43 59 68 53 42 42 40 39 39 41 42 43 55 76 85 79 76 77 81 84 82 77 75 77
49 50 45 43 40 39 38 35 28 29 31 25 20 20 24 27 25 22 27 36 35 44 63 53 42 37 37 36 37 37 36 59 81 89 86 80 78 75 79 76 74 74 78
41 51 43 34 34 34 32 27 24 14 17 11 4 4 7 6 6 12 20 25 37 38 52 71 63 45 36 35 34 35 41 60 83 92 92 86 83 80 79 80 79 75 79
39 46 40 28 24 20 22 23 22 16 9 356 351 351 354 354 357 15 16 30 30 34 37 37 58 71 53 35 30 32 44 52 65 79 87 87 90 89 80 82 88 80 75
23 43 21 19 6 358 2 8 14 11 13 1 344 349 359 1 13 27 19 19 34 30 25 21 28 37 65 59 34 27 35 42 50 69 75 77 84 91 88 84 93 90 85
11 21 7 359 360 345 358 11 18 352 3 350 336 331 329 222 31 10 351 356 360 8 1 7 17 14 15 42 60 35 24 32 42 58 62 66 80 95 99 89 95 90 95
5 353 340 341 337 319 342 334 326 330 325 324 332 330 320 335 333 283 350 341 354 339 329 330 338 345 354 23 46 57 28 22 31 45 40 37 49 98 101 97 100 93 97
337 335 332 320 313 315 305 294 299 295 289 299 305 306 307 318 297 300 286 325 336 330 319 307 311 314 324 357 27 43 33 19 13 29 21 13 13 67 101 96 97 103 106
291 295 303 298 299 298 291 292 286 286 275 284 291 289 294 287 277 285 292 303 305 319 318 307 306 300 285 289 328 41 46 6 2 359 351 353 5 50 90 121 105 113 121
271 268 271 279 286 291 288 283 272 274 280 277 277 279 280 283 290 285 288 294 305 316 310 303 294 292 274 276 1 66 50 338 304 322 330 337 3 10 45 147 119 133 131
268 275 268 267 276 278 276 277 269 274 274 274 274 281 281 279 288 286 286 289 296 299 292 268 274 273 265 265 186 119 166 174 284 285 310 329 343 344 327 224 201 175 163
269 276 274 268 270 273 272 272 272 276 279 276 276 276 275 277 274 276 280 283 284 287 279 286 265 250 279 267 181 222 194 153 202 247 273 283 286 318 316 275 265 228 211
283 279 271 268 264 267 269 268 270 275 278 277 279 277 275 277 273 272 270 271 275 278 286 290 282 263 269 284 266 249 267 137 195 234 240 254 266 278 282 275 267 252 233
284 281 275 275 266 262 261 258 270 274 272 274 274 275 276 274 269 265 262 264 266 275 278 288 286 282 278 266 251 276 291 140 188 199 222 235 251 256 260 261 257 260 235
275 279 280 279 273 268 269 259 261 266 267 271 272 275 275 274 270 267 263 257 256 261 264 277 284 284 275 277 280 291 305 282 223 179 213 238 246 246 249 246 250 256 239
276 283 282 277 279 275 276 277 265 263 266 273 277 278 279 275 270 273 267 257 255 259 260 271 279 282 280 285 280 282 287 289 294 167 196 228 241 247 244 240 244 247 238
279 282 282 277 281 280 275 274 274 267 266 269 274 276 278 276 271 272 269 266 264 263 259 256 272 282 273 272 271 265 272 277 281 262 208 224 238 244 245 245 245 246 242
291 286 285 285 286 285 279 277 277 275 268 268 270 271 272 275 277 278 271 269 266 265 262 254 257 264 264 267 263 265 275 270 268 271 250 242 236 235 240 244 243 247 247
297 295 292 291 289 285 291 291 281 278 270 269 270 271 275 281 294 286 281 275 268 266 267 264 263 265 263 258 265 264 264 275 271 268 260 251 242 244 238 235 235 243 242
300 301 298 298 293 292 321 307 291 278 273 267 269 271 268 259 262 268 273 278 275 265 266 265 266 263 272 274 273 264 260 269 272 265 258 264 254 253 258 254 236 239 237
301 302 303 302 300 303 303 295 290 282 271 266 267 267 268 268 263 263 256 249 256 252 254 260 261 264 271 271 272 273 271 272 273 268 261 264 256 256 256 250 204 225 223
302 301 304 302 302 312 324 308 297 272 273 268 265 264 264 267 269 278 271 266 265 262 258 259 264 269 273 276 268 264 269 271 274 264 239 258 263 263 266 255 202 213 211
305 304 306 303 300 304 314 308 304 282 274 273 272 272 273 272 283 278 264 263 266 267 255 252 272 277 277 267 259 251 251 255 264 259 246 252 255 264 257 252 225 204 210
295 302 302 303 300 300 323 308 304 287 281 281 278 277 278 281 291 269 260 263 265 270 271 269 267 266 263 256 241 245 245 246 255 259 243 244 251 254 257 252 253 239 230
Height
1544 1544 1543 1542 1542 1541 1540 1539 1539 1538 1538 1538 1537 1536 1536 1535 1535 1534 1533 1532 1531 1530 1529 1528 1527 1527 1526 1525 1524 1524 1524 1523 1523 1523 1523 1523 1524 1524 1524 1525 1525 1524 1524
1545 1545 1544 1543 1542 1542 1541 1540 1539 1538 1538 1538 1537 1536 1536 1535 1535 1534 1533 1532 1531 1530 1529 1529 1528 1527 1526 1525 1525 1524 1524 1523 1523 1523 1523 1524 1524 1524 1524 1524 1524 1524 1525
1546 1546 1545 1544 1543 1542 1542 1541 1540 1539 1538 1537 1537 1536 1535 1535 1534 1534 1533 1532 1532 1530 1530 1529 1528 1527 1526 1525 1525 1524 1523 1522 1522 1522 1523 1523 1523 1523 1524 1524 1524 1524 1524
1547 1546 1545 1545 1544 1543 1542 1541 1540 1539 1538 1538 1537 1536 1535 1534 1534 1533 1533 1532 1531 1531 1530 1529 1528 1527 1526 1525 1524 1523 1522 1521 1521 1522 1523 1523 1523 1523 1524 1524 1524 1524 1524
1547 1547 1546 1545 1544 1543 1542 1541 1540 1539 1538 1537 1537 1536 1535 1534 1533 1533 1532 1532 1531 1530 1530 1528 1528 1527 1526 1525 1524 1523 1521 1520 1521 1521 1522 1523 1523 1523 1524 1524 1524 1524 1524
1547 1546 1546 1545 1544 1543 1542 1541 1540 1539 1538 1537 1536 1535 1534 1533 1533 1532 1532 1531 1531 1530 1529 1528 1528 1527 1526 1525 1525 1523 1521 1521 1521 1522 1522 1523 1523 1523 1523 1524 1524 1524 1524
1547 1546 1545 1545 1544 1543 1542 1541 1540 1539 1538 1537 1536 1535 1534 1534 1533 1532 1531 1531 1530 1529 1529 1528 1528 1527 1526 1525 1525 1524 1523 1522 1522 1522 1522 1522 1523 1523 1523 1524 1524 1524 1523
1546 1546 1545 1544 1543 1542 1541 1541 1539 1539 1538 1537 1537 1536 1535 1535 1533 1532 1531 1530 1530 1529 1529 1528 1527 1527 1526 1525 1524 1524 1523 1523 1522 1522 1522 1522 1522 1523 1523 1523 1523 1523 1523
1545 1545 1544 1544 1543 1542 1541 1540 1539 1538 1538 1537 1537 1537 1536 1534 1533 1532 1530 1530 1529 1528 1528 1527 1527 1526 1526 1525 1524 1523 1522 1522 1522 1521 1521 1521 1522 1522 1522 1523 1523 1523 1523
1545 1544 1543 1543 1542 1541 1540 1540 1539 1538 1537 1537 1536 1535 1536 1534 1533 1531 1531 1529 1528 1527 1527 1526 1525 1525 1525 1524 1523 1522 1522 1521 1521 1521 1520 1520 1521 1521 1521 1522 1522 1522 1522
1543 1543 1542 1541 1541 1540 1540 1539 1538 1537 1536 1536 1535 1534 1533 1533 1532 1531 1529 1529 1527 1526 1525 1525 1524 1524 1523 1523 1522 1521 1520 1520 1520 1519 1519 1519 1520 1520 1520 1520 1521 1521 1522
1542 1541 1540 1540 1539 1539 1538 1537 1536 1536 1535 1534 1533 1533 1532 1532 1531 1530 1528 1527 1526 1525 1524 1523 1523 1522 1522 1521 1520 1519 1518 1518 1518 1518 1518 1518 1518 1518 1519 1519 1520 1520 1520
1540 1539 1539 1538 1538 1537 1536 1535 1535 1534 1533 1532 1532 1531 1530 1530 1529 1528 1527 1525 1524 1523 1522 1522 1521 1520 1520 1520 1519 1518 1517 1517 1517 1516 1516 1517 1517 1517 1518 1518 1518 1518 1519
1538 1537 1537 1536 1535 1535 1534 1533 1532 1532 1531 1530 1529 1528 1528 1527 1526 1525 1525 1524 1523 1522 1521 1520 1519 1519 1518 1518 1517 1516 1516 1515 1515 1515 1515 1515 1515 1516 1516 1516 1516 1517 1517
1535 1534 1534 1533 1533 1532 1531 1531 1530 1529 1529 1528 1527 1526 1525 1524 1523 1523 1522 1522 1522 1520 1519 1518 1518 1517 1516 1516 1515 1515 1514 1514 1513 1513 1513 1513 1513 1513 1514 1514 1514 1514 1515
1532 1532 1531 1530 1530 1529 1528 1528 1527 1526 1526 1525 1524 1523 1522 1521 1520 1520 1519 1519 1519 1518 1517 1516 1515 1515 1514 1514 1513 1513 1512 1511 1511 1511 1510 1510 1510 1511 1511 1511 1512 1512 1512
1529 1529 1528 1527 1527 1526 1526 1525 1524 1523 1523 1522 1521 1520 1519 1518 1518 1517 1516 1516 1515 1515 1514 1512 1512 1512 1512 1511 1511 1510 1510 1509 1509 1508 1508 1508 1508 1508 1508 1508 1509 1509 1509
1526 1526 1525 1524 1524 1523 1522 1522 1521 1520 1520 1519 1518 1517 1516 1515 1514 1514 1513 1513 1512 1512 1511 1510 1509 1509 1509 1509 1508 1508 1507 1507 1507 1506 1506 1505 1505 1505 1505 1505 1505 1505 1505
1523 1523 1522 1521 1521 1520 1519 1519 1518 1517 1516 1515 1515 1514 1513 1512 1512 1511 1510 1509 1509 1508 1508 1507 1506 1506 1506 1506 1505 1505 1505 1504 1504 1504 1503 1503 1502 1502 1502 1502 1501 1501 1501
1520 1520 1519 1518 1517 1517 1516 1515 1514 1514 1513 1512 1511 1510 1510 1509 1508 1508 1507 1506 1506 1505 1505 1504 1504 1503 1503 1503 1503 1502 1502 1502 1501 1501 1500 1500 1499 1498 1498 1498 1497 1497 1496
1517 1516 1516 1515 1514 1513 1512 1511 1511 1510 1509 1509 1508 1507 1506 1505 1504 1504 1503 1503 1503 1502 1502 1502 1501 1501 1500 1500 1500 1499 1499 1499 1498 1498 1497 1497 1496 1495 1495 1494 1493 1492 1492
1514 1513 1512 1511 1510 1509 1508 1507 1507 1506 1506 1505 1504 1503 1502 1501 1500 1500 1499 1499 1499 1499 1499 1498 1498 1497 1497 1497 1497 1497 1496 1496 1495 1495 1494 1494 1493 1492 1491 1491 1490 1489 1489
1511 1510 1509 1508 1507 1505 1504 1503 1503 1502 1502 1501 1500 1499 1498 1497 1496 1496 1495 1495 1495 1495 1495 1495 1494 1494 1494 1494 1493 1493 1493 1492 1492 1492 1491 1490 1490 1488 1488 1487 1486 1486 1486
1508 1507 1505 1504 1503 1502 1501 1500 1498 1498 1498 1497 1496 1495 1495 1494 1493 1492 1491 1491 1491 1491 1491 1491 1491 1490 1490 1490 1489 1489 1489 1488 1488 1488 1487 1486 1486 1485 1484 1483 1482 1482 1482
1504 1503 1502 1501 1500 1499 1497 1496 1495 1495 1494 1493 1492 1492 1491 1490 1488 1488 1488 1487 1487 1487 1487 1486 1486 1485 1485 1485 1485 1485 1484 1485 1484 1484 1483 1483 1482 1481 1481 1480 1479 1478 1479
1501 1500 1499 1498 1497 1495 1494 1493 1492 1491 1491 1490 1489 1488 1487 1486 1485 1484 1484 1484 1483 1483 1482 1482 1481 1480 1480 1480 1480 1480 1480 1480 1480 1480 1479 1479 1479 1478 1477 1477 1476 1475 1475